Location: London
(51.5166°N, 0.1046°W)
Time: 20:28:20
(UTC+00:00)

ISS - Visible Passes

Search period start: 12 February 2016 00:00
Search period end: 22 February 2016 00:00
Orbit: 399 x 407 km, 51.6° (Epoch: 12 February)

Date Brightness Start Highest point End Pass type
(mag) Time Alt. Az. Time Alt. Az. Time Alt. Az.
12 Feb -3.4 18:55:00 10° W 18:58:16 82° S 18:58:51 56° ESE visible
13 Feb -3.4 18:02:17 10° W 18:05:33 88° N 18:08:22 13° E visible
13 Feb -1.7 19:38:47 10° W 19:41:00 33° WSW 19:41:00 33° WSW visible
14 Feb -3.0 18:46:02 10° W 18:49:16 60° SSW 18:50:33 31° SE visible
14 Feb 0.1 20:23:01 10° W 20:23:12 11° WSW 20:23:12 11° WSW visible
15 Feb -3.2 17:53:18 10° W 17:56:33 78° SSW 17:59:49 10° ESE visible
15 Feb -1.6 19:29:57 10° W 19:32:43 26° SSW 19:32:49 26° SSW visible
16 Feb -2.2 18:37:04 10° W 18:40:07 38° SSW 18:42:30 15° SE visible
17 Feb -0.7 19:21:26 10° WSW 19:23:24 15° SW 19:24:57 12° S visible
18 Feb -1.1 18:28:12 10° W 18:30:51 23° SSW 18:33:30 10° SSE visible
20 Feb -0.3 18:19:47 10° WSW 18:21:26 13° SW 18:23:04 10° S visible
